TimeMST,TemperatureF,Dew PointF,Humidity,Sea Level PressureIn,VisibilityMPH,Wind Direction,Wind SpeedMPH,Gust SpeedMPH,PrecipitationIn,Events,Conditions,WindDirDegrees,DateUTC
12:53 AM,75.0,42.1,31,29.79,10.0,Calm,Calm,-,N/A,,Clear,0,2012-10-07 07:53:00
1:53 AM,75.0,42.1,31,29.78,10.0,Calm,Calm,-,N/A,,Clear,0,2012-10-07 08:53:00
2:53 AM,72.0,45.0,38,29.78,10.0,Calm,Calm,-,N/A,,Clear,0,2012-10-07 09:53:00
3:53 AM,71.1,45.0,39,29.78,10.0,Calm,Calm,-,N/A,,Clear,0,2012-10-07 10:53:00
4:53 AM,71.1,44.1,38,29.79,10.0,Calm,Calm,-,N/A,,Clear,0,2012-10-07 11:53:00
5:53 AM,70.0,46.0,42,29.81,10.0,Calm,Calm,-,N/A,,Clear,0,2012-10-07 12:53:00
6:53 AM,69.1,44.1,40,29.83,10.0,Calm,Calm,-,N/A,,Clear,0,2012-10-07 13:53:00
7:53 AM,71.1,46.0,41,29.85,10.0,Calm,Calm,-,N/A,,Clear,0,2012-10-07 14:53:00
8:53 AM,77.0,43.0,30,29.86,10.0,Calm,Calm,-,N/A,,Clear,0,2012-10-07 15:53:00
9:53 AM,82.9,42.1,24,29.86,10.0,SE,4.6,-,N/A,,Clear,130,2012-10-07 16:53:00
10:53 AM,84.9,42.1,22,29.86,10.0,SSE,6.9,-,N/A,,Clear,150,2012-10-07 17:53:00
11:53 AM,87.1,43.0,21,29.84,10.0,SSW,6.9,-,N/A,,Clear,210,2012-10-07 18:53:00
12:53 PM,89.1,43.0,20,29.81,10.0,South,4.6,-,N/A,,Clear,190,2012-10-07 19:53:00
1:53 PM,90.0,41.0,18,29.79,10.0,Variable,5.8,-,N/A,,Clear,0,2012-10-07 20:53:00
2:53 PM,91.0,42.1,18,29.78,10.0,SW,6.9,-,N/A,,Clear,230,2012-10-07 21:53:00
3:53 PM,90.0,41.0,18,29.77,10.0,SE,4.6,-,N/A,,Clear,140,2012-10-07 22:53:00
4:53 PM,90.0,39.9,17,29.76,10.0,SSW,5.8,-,N/A,,Clear,210,2012-10-07 23:53:00
5:53 PM,89.1,39.9,18,29.77,10.0,WSW,3.5,-,N/A,,Clear,240,2012-10-08 00:53:00
6:53 PM,86.0,39.9,20,29.78,10.0,Calm,Calm,-,N/A,,Clear,0,2012-10-08 01:53:00
7:53 PM,84.0,39.9,21,29.80,10.0,Calm,Calm,-,N/A,,Clear,0,2012-10-08 02:53:00
8:53 PM,81.0,41.0,24,29.81,10.0,Calm,Calm,-,N/A,,Clear,0,2012-10-08 03:53:00
9:53 PM,79.0,41.0,26,29.81,10.0,Calm,Calm,-,N/A,,Clear,0,2012-10-08 04:53:00
10:53 PM,78.1,41.0,27,29.81,10.0,Calm,Calm,-,N/A,,Clear,0,2012-10-08 05:53:00
11:53 PM,73.0,43.0,34,29.81,10.0,Calm,Calm,-,N/A,,Clear,0,2012-10-08 06:53:00